This is the latest recevied weather packets stored in our database for station/object KJ7IVE-13. If no packets are shown the sender has not sent any weather packets the latest 10 day(s).
| Time | Temp. | Humidity | Pressure | Rain* | Wind** | Luminosity | Snow |
|---|---|---|---|---|---|---|---|
| 1777772142 | 21.11° C | 10% | 1017.3 hPa | 0 mm | - | 49 W/m² | - |
| 1777771537 | 21.11° C | 10% | 1017.2 hPa | 0 mm | - | 62 W/m² | - |
| 1777770930 | 21.11° C | 10% | 1017.4 hPa | 0 mm | - | 78 W/m² | - |
| 1777764261 | 22.22° C | 10% | 1018 hPa | 0 mm | - | 311 W/m² | - |
| 1777763655 | 22.22° C | 10% | 1018.1 hPa | 0 mm | - | 361 W/m² | - |
| 1777762439 | 22.22° C | 10% | 1018.4 hPa | 0 mm | - | 429 W/m² | - |
| 1777761221 | 22.22° C | 10% | 1018.7 hPa | 0 mm | - | 429 W/m² | - |
| 1777760919 | 22.78° C | 10% | 1018.9 hPa | 0 mm | - | 446 W/m² | - |
| 1777760616 | 21.67° C | 10% | 1019.1 hPa | 0 mm | - | 495 W/m² | - |
| 1777760311 | 21.67° C | 10% | 1018.9 hPa | 0 mm | - | 541 W/m² | - |
| 1777760008 | 22.22° C | 10% | 1019 hPa | 0 mm | - | 570 W/m² | - |
| 1777759705 | 21.67° C | 10% | 1019 hPa | 0 mm | - | 605 W/m² | - |
| 1777759401 | 22.78° C | 10% | 1019.1 hPa | 0 mm | - | 629 W/m² | - |
| 1777758795 | 21.67° C | 10% | 1019.5 hPa | 0 mm | - | 591 W/m² | - |
| 1777758492 | 21.67° C | 10% | 1019.5 hPa | 0 mm | - | 596 W/m² | - |
| 1777757885 | 21.67° C | 10% | 1019.5 hPa | 0 mm | - | 582 W/m² | - |
| 1777755761 | 21.67° C | 10% | 1020.2 hPa | 0 mm | - | 527 W/m² | - |
| 1777755458 | 21.67° C | 10% | 1020.2 hPa | 0 mm | - | 586 W/m² | - |
| 1777753337 | 21.67° C | 10% | 1020.2 hPa | 0 mm | - | 577 W/m² | - |
| 1777751821 | 21.11° C | 10% | 1020.9 hPa | 0 mm | - | 657 W/m² | - |
| 1777751517 | 20.56° C | 10% | 1020.9 hPa | 0 mm | - | 629 W/m² | - |
| 1777750596 | 20.56° C | 10% | 1021.4 hPa | 0 mm | - | 675 W/m² | - |
| 1777750293 | 20.56° C | 10% | 1021 hPa | 0 mm | - | 651 W/m² | - |
| 1777749988 | 20.56° C | 10% | 1021.1 hPa | 0 mm | - | 671 W/m² | - |
| 1777749686 | 21.11° C | 10% | 1020.9 hPa | 0 mm | - | 689 W/m² | - |
* Rain latest hour (hover to see other rain measurements)
** Current wind speed in m/s (hover to see current wind gust speed)